HAL2312 KSBD-PHNL

Flight info

Callsign HAL2312
Flight time N/A
Altitude 38000
Route JADKO2 SXC C1177 FICKY R578 FIZEL/N0460F400 R578 FITES DEREC V21 LNY JULLE5
Aircraft A333/H-SDE3GHIJ2J3J5M1RVWXY/LB2D1

Departure

Time 2026-05-07 18:04
Airport San Bernardino International Airport (KSBD)

Arrival

Time N/A
Airport Daniel K. Inouye International Airport (PHNL)
Time Latitude Longitude Altitude Speed Heading
2026-05-07 17:40 34.10141 -117.22949 1147 ft 0 kts 17°
2026-05-07 17:55 34.10133 -117.22953 1148 ft 3 kts 21°
2026-05-07 17:55 34.10115 -117.22963 1146 ft 3 kts 36°
2026-05-07 17:55 34.10099 -117.22978 1146 ft 3 kts 45°
2026-05-07 17:56 34.10096 -117.22982 1146 ft 1 kts 45°
2026-05-07 17:58 34.10098 -117.22978 1146 ft 1 kts 57°
2026-05-07 17:59 34.10096 -117.22971 1146 ft 0 kts 92°
2026-05-07 17:59 34.10091 -117.22951 1150 ft 4 kts 103°
2026-05-07 17:59 34.10083 -117.22907 1148 ft 7 kts 102°
2026-05-07 17:59 34.10069 -117.22841 1153 ft 9 kts 105°
2026-05-07 18:00 34.10050 -117.22771 1154 ft 8 kts 118°
2026-05-07 18:00 34.09998 -117.22720 1154 ft 11 kts 141°
2026-05-07 18:00 34.09981 -117.22631 1155 ft 11 kts 79°
2026-05-07 18:00 34.10000 -117.22555 1157 ft 9 kts 71°
2026-05-07 18:01 34.10027 -117.22464 1159 ft 14 kts 70°
2026-05-07 18:01 34.10058 -117.22358 1160 ft 13 kts 70°
2026-05-07 18:01 34.10088 -117.22255 1162 ft 14 kts 70°
2026-05-07 18:01 34.10119 -117.22155 1167 ft 12 kts 69°
2026-05-07 18:02 34.10111 -117.21999 1164 ft 7 kts 152°
2026-05-07 18:02 34.10101 -117.21994 1168 ft 0 kts 156°
2026-05-07 18:02 34.10096 -117.21992 1168 ft 5 kts 157°
2026-05-07 18:03 34.10031 -117.21961 1169 ft 8 kts 159°
2026-05-07 18:03 34.09988 -117.21972 1167 ft 7 kts 226°
2026-05-07 18:03 34.09961 -117.22055 1166 ft 19 kts 250°
2026-05-07 18:03 34.09844 -117.22441 1154 ft 80 kts 250°
2026-05-07 18:04 34.09589 -117.23307 1143 ft 137 kts 250°
2026-05-07 18:04 34.09212 -117.24574 1159 ft 183 kts 250°
2026-05-07 18:04 34.08750 -117.26066 1747 ft 193 kts 249°
2026-05-07 18:04 34.08236 -117.27563 2666 ft 186 kts 245°
2026-05-07 18:05 34.07708 -117.28950 3474 ft 186 kts 243°
2026-05-07 18:05 34.06909 -117.30288 3764 ft 211 kts 220°
2026-05-07 18:05 34.05475 -117.30965 3933 ft 241 kts 180°
2026-05-07 18:05 34.03733 -117.30599 4209 ft 264 kts 163°
2026-05-07 18:06 34.01942 -117.29919 4754 ft 274 kts 160°
2026-05-07 18:06 34.00231 -117.28927 5319 ft 280 kts 142°
2026-05-07 18:06 33.98956 -117.27171 6021 ft 280 kts 117°
2026-05-07 18:06 33.98159 -117.25026 6624 ft 281 kts 109°
2026-05-07 18:07 33.97468 -117.22818 6907 ft 282 kts 108°
2026-05-07 18:07 33.96694 -117.20631 7005 ft 284 kts 117°
2026-05-07 18:07 33.95491 -117.18766 7390 ft 287 kts 137°
2026-05-07 18:07 33.93757 -117.17562 8065 ft 291 kts 162°
2026-05-07 18:08 33.91740 -117.17417 8845 ft 295 kts 190°
2026-05-07 18:08 33.89881 -117.18462 9593 ft 298 kts 220°
2026-05-07 18:08 33.88601 -117.20441 10237 ft 305 kts 240°
2026-05-07 18:08 33.87624 -117.22763 10514 ft 324 kts 244°
2026-05-07 18:09 33.86634 -117.25287 10761 ft 343 kts 244°
2026-05-07 18:09 33.85579 -117.27934 11127 ft 357 kts 244°
2026-05-07 18:09 33.84480 -117.30641 11674 ft 363 kts 244°
2026-05-07 18:09 33.83349 -117.33394 12320 ft 368 kts 243°
2026-05-07 18:10 33.82212 -117.36142 12944 ft 373 kts 243°
2026-05-07 18:10 33.81039 -117.38965 13567 ft 378 kts 243°
2026-05-07 18:10 33.79852 -117.41815 14160 ft 382 kts 243°
2026-05-07 18:10 33.78654 -117.44687 14721 ft 386 kts 243°
2026-05-07 18:11 33.77456 -117.47553 15275 ft 390 kts 243°
2026-05-07 18:11 33.76644 -117.49497 15650 ft 393 kts 243°
2026-05-07 18:11 33.74993 -117.53441 16441 ft 397 kts 243°
2026-05-07 18:11 33.73741 -117.56427 17010 ft 401 kts 244°
2026-05-07 18:12 33.72479 -117.59437 17539 ft 405 kts 243°
2026-05-07 18:12 33.71204 -117.62469 18076 ft 408 kts 244°
2026-05-07 18:12 33.69934 -117.65493 18576 ft 412 kts 244°
2026-05-07 18:12 33.68636 -117.68581 19053 ft 414 kts 244°
2026-05-07 18:13 33.67332 -117.71681 19550 ft 417 kts 244°
2026-05-07 18:13 33.66017 -117.74802 20029 ft 419 kts 244°
2026-05-07 18:13 33.64689 -117.77950 20504 ft 422 kts 244°
2026-05-07 18:13 33.63442 -117.80906 20948 ft 425 kts 244°
2026-05-07 18:14 33.62114 -117.84048 21416 ft 427 kts 244°
2026-05-07 18:14 33.60764 -117.87241 21883 ft 430 kts 244°
2026-05-07 18:14 33.59404 -117.90455 22332 ft 433 kts 244°
2026-05-07 18:14 33.58033 -117.93692 22775 ft 435 kts 244°
2026-05-07 18:15 33.56656 -117.96940 23219 ft 438 kts 244°
2026-05-07 18:15 33.55285 -118.00169 23643 ft 441 kts 244°
2026-05-07 18:15 33.53887 -118.03461 24008 ft 443 kts 244°
2026-05-07 18:15 33.52479 -118.06773 24370 ft 445 kts 244°
2026-05-07 18:16 33.51085 -118.10049 24785 ft 445 kts 244°
2026-05-07 18:16 33.49668 -118.13374 25196 ft 446 kts 244°
2026-05-07 18:16 33.48251 -118.16697 25556 ft 448 kts 244°
2026-05-07 18:16 33.46841 -118.20001 25909 ft 450 kts 244°
2026-05-07 18:17 33.45411 -118.23349 26267 ft 451 kts 244°
2026-05-07 18:17 33.43971 -118.26718 26627 ft 453 kts 244°
2026-05-07 18:17 33.42545 -118.30048 26980 ft 455 kts 244°
2026-05-07 18:17 33.41092 -118.33441 27334 ft 457 kts 244°
2026-05-07 18:18 33.39637 -118.36833 27681 ft 458 kts 244°
2026-05-07 18:18 33.38163 -118.40170 28046 ft 460 kts 240°
2026-05-07 18:18 33.36345 -118.43340 28438 ft 463 kts 232°
2026-05-07 18:18 33.34270 -118.46315 28723 ft 466 kts 230°
2026-05-07 18:19 33.32085 -118.49223 29030 ft 469 kts 228°
2026-05-07 18:19 33.29892 -118.52052 29341 ft 471 kts 228°
2026-05-07 18:19 33.27649 -118.54924 29671 ft 473 kts 228°
2026-05-07 18:19 33.25403 -118.57813 29984 ft 475 kts 228°
2026-05-07 18:20 33.23154 -118.60729 30279 ft 477 kts 229°
2026-05-07 18:20 33.20901 -118.63670 30525 ft 479 kts 229°
2026-05-07 18:20 33.18682 -118.66580 30755 ft 481 kts 229°
2026-05-07 18:20 33.16422 -118.69548 31018 ft 483 kts 229°
2026-05-07 18:21 33.14153 -118.72529 31272 ft 485 kts 229°
2026-05-07 18:21 33.11870 -118.75527 31521 ft 487 kts 229°
2026-05-07 18:21 33.09612 -118.78489 31770 ft 489 kts 229°
2026-05-07 18:21 33.07310 -118.81506 32073 ft 489 kts 229°
2026-05-07 18:22 33.05007 -118.84520 32438 ft 488 kts 229°
2026-05-07 18:22 33.03491 -118.86502 32666 ft 488 kts 230°
2026-05-07 18:22 33.00454 -118.90468 33103 ft 487 kts 230°
2026-05-07 18:22 32.98167 -118.93454 33412 ft 487 kts 230°
2026-05-07 18:23 32.95881 -118.96435 33704 ft 487 kts 230°
2026-05-07 18:23 32.93596 -118.99415 34013 ft 486 kts 230°
2026-05-07 18:23 32.91316 -119.02385 34282 ft 486 kts 230°
2026-05-07 18:23 32.89067 -119.05314 34540 ft 485 kts 230°
2026-05-07 18:24 32.86790 -119.08276 34816 ft 485 kts 230°
2026-05-07 18:24 32.84502 -119.11249 35076 ft 484 kts 230°
2026-05-07 18:24 32.82224 -119.14207 35347 ft 483 kts 230°
2026-05-07 18:24 32.79977 -119.17123 35605 ft 482 kts 230°
2026-05-07 18:25 32.77715 -119.20056 35854 ft 481 kts 230°
2026-05-07 18:25 32.75451 -119.22989 36102 ft 480 kts 230°